Main page
METAR-TAF:

METAR-TAF

Airports :

Kullu / Manali, India

Bhuntar Airport

latitude: 31-52-36N, longitude: 77-09-16E, elevation: 1089 m

Current weather observation

The report was made 8 hours and 19 minutes ago, at 09:00 UTC
Wind 6 kt from the Southeast
Temperature 33°C
Humidity 46%
Pressure 1006 hPa
Visibility: 7000 m
Scattered clouds at a height of 3000 ft

METAR: VIBR 260900Z 14006KT 7000 SCT030 33/20 Q1006

Time: 22:49 (17:19 UTC)


TAF: missing

Weather observations and forecasts of more than 4000 airports (METAR and TAF reports).

The available stations are represented by yellow and red dots on the map.

Hover mouse over dot to see the name of the station.

Then click to see weather observations and forecasts.

To change the map : click on the green buttons with a black cross to zoom in, on the green button with a dash to zoom out, or on the green arrows for adjacent maps.


METAR-TAF: